contact:dominique.lefevre@mio.osupytheas.fr, maurice.libes@osupytheas.fr, didier.mallarino@osupytheas.fr
Project:EMSO http://www.emso-fr.org/EMSO-France
Depth: 2436.0 m
Title:EMSO Ligure Ouest : Data MII capteur MICROCAT
DateTime_Computer,Latitude,Longitude,Temperature,Conductivity,Pressure,DateTime_Instrument
DateTime_Computer,Latitude,Longitude,degC,S m-1,dbar,DateTime_Instrument
2021-12-09T00:00:02Z,42.805,6.029,13.3026,4.60046,2470.297,2021-12-09T02:01:30Z
2021-12-09T00:03:05Z,42.805,6.029,13.3026,4.60046,2470.273,2021-12-09T02:04:33Z
2021-12-09T00:06:09Z,42.805,6.029,13.3028,4.60039,2470.31,2021-12-09T02:07:37Z
2021-12-09T00:09:12Z,42.805,6.029,13.3030,4.60041,2470.25,2021-12-09T02:10:40Z
2021-12-09T00:12:15Z,42.805,6.029,13.3040,4.60051,2470.287,2021-12-09T02:13:43Z
2021-12-09T00:15:18Z,42.805,6.029,13.3028,4.60067,2470.31,2021-12-09T02:16:46Z
2021-12-09T00:18:21Z,42.805,6.029,13.3039,4.60054,2470.287,2021-12-09T02:19:49Z
2021-12-09T00:21:24Z,42.805,6.029,13.3029,4.60066,2470.264,2021-12-09T02:22:52Z
2021-12-09T00:24:27Z,42.805,6.029,13.3002,4.60053,2470.31,2021-12-09T02:25:55Z
2021-12-09T00:27:30Z,42.805,6.029,13.3031,4.60069,2470.264,2021-12-09T02:28:58Z
2021-12-09T00:30:33Z,42.805,6.029,13.3028,4.60050,2470.264,2021-12-09T02:32:01Z
2021-12-09T00:33:37Z,42.805,6.029,13.2995,4.60059,2470.287,2021-12-09T02:35:05Z
2021-12-09T00:36:40Z,42.805,6.029,13.2994,4.60037,2470.264,2021-12-09T02:38:08Z
2021-12-09T00:39:43Z,42.805,6.029,13.2991,4.60034,2470.287,2021-12-09T02:41:11Z
2021-12-09T00:42:46Z,42.805,6.029,13.2990,4.60030,2470.297,2021-12-09T02:44:14Z
2021-12-09T00:45:49Z,42.805,6.029,13.2992,4.60022,2470.273,2021-12-09T02:47:17Z
2021-12-09T00:48:52Z,42.805,6.029,13.2993,4.60028,2470.287,2021-12-09T02:50:20Z
2021-12-09T00:51:55Z,42.805,6.029,13.2992,4.60031,2470.287,2021-12-09T02:53:23Z
2021-12-09T00:54:58Z,42.805,6.029,13.2989,4.60022,2470.25,2021-12-09T02:56:26Z
2021-12-09T00:58:02Z,42.805,6.029,13.2993,4.60020,2470.264,2021-12-09T02:59:29Z
2021-12-09T01:01:05Z,42.805,6.029,13.2988,4.60020,2470.264,2021-12-09T03:02:33Z
2021-12-09T01:04:08Z,42.805,6.029,13.2989,4.60023,2470.287,2021-12-09T03:05:36Z
2021-12-09T01:07:11Z,42.805,6.029,13.2990,4.60026,2470.227,2021-12-09T03:08:39Z
2021-12-09T01:10:14Z,42.805,6.029,13.2991,4.60026,2470.264,2021-12-09T03:11:42Z
2021-12-09T01:13:17Z,42.805,6.029,13.2991,4.60021,2470.273,2021-12-09T03:14:45Z
2021-12-09T01:16:20Z,42.805,6.029,13.2987,4.60025,2470.273,2021-12-09T03:17:48Z
2021-12-09T01:19:23Z,42.805,6.029,13.2992,4.60019,2470.297,2021-12-09T03:20:51Z
2021-12-09T01:22:27Z,42.805,6.029,13.2991,4.60021,2470.287,2021-12-09T03:23:54Z
2021-12-09T01:25:30Z,42.805,6.029,13.2991,4.60019,2470.264,2021-12-09T03:26:58Z
2021-12-09T01:28:33Z,42.805,6.029,13.2990,4.60025,2470.227,2021-12-09T03:30:01Z
2021-12-09T01:31:36Z,42.805,6.029,13.2991,4.60019,2470.227,2021-12-09T03:33:04Z
2021-12-09T01:34:39Z,42.805,6.029,13.2991,4.60017,2470.264,2021-12-09T03:36:07Z
2021-12-09T01:37:42Z,42.805,6.029,13.2990,4.60021,2470.25,2021-12-09T03:39:10Z
2021-12-09T01:40:45Z,42.805,6.029,13.2992,4.60017,2470.227,2021-12-09T03:42:13Z
2021-12-09T01:43:48Z,42.805,6.029,13.2990,4.60016,2470.25,2021-12-09T03:45:16Z
2021-12-09T01:46:51Z,42.805,6.029,13.2989,4.60017,2470.227,2021-12-09T03:48:19Z
2021-12-09T01:49:55Z,42.805,6.029,13.2990,4.60015,2470.227,2021-12-09T03:51:23Z
2021-12-09T01:52:58Z,42.805,6.029,13.2993,4.60016,2470.264,2021-12-09T03:54:26Z
2021-12-09T01:56:01Z,42.805,6.029,13.2991,4.60016,2470.227,2021-12-09T03:57:29Z
2021-12-09T01:59:04Z,42.805,6.029,13.2989,4.60019,2470.24,2021-12-09T04:00:32Z
2021-12-09T02:02:07Z,42.805,6.029,13.2993,4.60015,2470.227,2021-12-09T04:03:35Z
2021-12-09T02:05:10Z,42.805,6.029,13.2990,4.60017,2470.264,2021-12-09T04:06:38Z
2021-12-09T02:08:13Z,42.805,6.029,13.2987,4.60015,2470.24,2021-12-09T04:09:41Z
2021-12-09T02:11:16Z,42.805,6.029,13.2993,4.60016,2470.227,2021-12-09T04:12:44Z
2021-12-09T02:14:20Z,42.805,6.029,13.2990,4.60015,2470.24,2021-12-09T04:15:47Z
2021-12-09T02:17:23Z,42.805,6.029,13.2990,4.60015,2470.217,2021-12-09T04:18:51Z
2021-12-09T02:20:26Z,42.805,6.029,13.2992,4.60015,2470.227,2021-12-09T04:21:54Z
2021-12-09T02:23:29Z,42.805,6.029,13.2987,4.60016,2470.217,2021-12-09T04:24:57Z
2021-12-09T02:26:32Z,42.805,6.029,13.2986,4.60017,2470.217,2021-12-09T04:28:00Z
2021-12-09T02:29:35Z,42.805,6.029,13.2990,4.60017,2470.24,2021-12-09T04:31:03Z
2021-12-09T02:32:38Z,42.805,6.029,13.2988,4.60019,2470.203,2021-12-09T04:34:06Z
2021-12-09T02:35:41Z,42.805,6.029,13.2988,4.60020,2470.217,2021-12-09T04:37:09Z
2021-12-09T02:38:44Z,42.805,6.029,13.2989,4.60018,2470.227,2021-12-09T04:40:12Z
2021-12-09T02:41:48Z,42.805,6.029,13.2986,4.60018,2470.25,2021-12-09T04:43:16Z
2021-12-09T02:44:51Z,42.805,6.029,13.2991,4.60017,2470.227,2021-12-09T04:46:19Z
2021-12-09T02:47:54Z,42.805,6.029,13.2989,4.60015,2470.203,2021-12-09T04:49:22Z
2021-12-09T02:50:57Z,42.805,6.029,13.2991,4.60018,2470.18,2021-12-09T04:52:25Z
2021-12-09T02:54:00Z,42.805,6.029,13.2990,4.60016,2470.203,2021-12-09T04:55:28Z
2021-12-09T02:57:03Z,42.805,6.029,13.2990,4.60021,2470.24,2021-12-09T04:58:31Z
2021-12-09T03:00:06Z,42.805,6.029,13.2992,4.60017,2470.217,2021-12-09T05:01:34Z
2021-12-09T03:03:09Z,42.805,6.029,13.2988,4.60020,2470.217,2021-12-09T05:04:37Z
2021-12-09T03:06:13Z,42.805,6.029,13.2986,4.60016,2470.203,2021-12-09T05:07:41Z
2021-12-09T03:09:16Z,42.805,6.029,13.2990,4.60016,2470.18,2021-12-09T05:10:44Z
2021-12-09T03:12:19Z,42.805,6.029,13.2989,4.60014,2470.24,2021-12-09T05:13:47Z
2021-12-09T03:15:22Z,42.805,6.029,13.2990,4.60014,2470.194,2021-12-09T05:16:50Z
2021-12-09T03:18:25Z,42.805,6.029,13.2990,4.60016,2470.203,2021-12-09T05:19:53Z
2021-12-09T03:21:28Z,42.805,6.029,13.2992,4.60017,2470.194,2021-12-09T05:22:56Z
2021-12-09T03:24:31Z,42.805,6.029,13.2990,4.60017,2470.203,2021-12-09T05:25:59Z
2021-12-09T03:27:34Z,42.805,6.029,13.2991,4.60014,2470.203,2021-12-09T05:29:02Z
2021-12-09T03:30:37Z,42.805,6.029,13.2988,4.60016,2470.203,2021-12-09T05:32:05Z
2021-12-09T03:33:41Z,42.805,6.029,13.2992,4.60021,2470.203,2021-12-09T05:35:09Z
2021-12-09T03:36:44Z,42.805,6.029,13.2991,4.60016,2470.25,2021-12-09T05:38:12Z
2021-12-09T03:39:47Z,42.805,6.029,13.2990,4.60014,2470.18,2021-12-09T05:41:15Z
2021-12-09T03:42:50Z,42.805,6.029,13.2991,4.60013,2470.203,2021-12-09T05:44:18Z
2021-12-09T03:45:53Z,42.805,6.029,13.2992,4.60015,2470.203,2021-12-09T05:47:21Z
2021-12-09T03:48:56Z,42.805,6.029,13.2987,4.60016,2470.194,2021-12-09T05:50:24Z
2021-12-09T03:51:59Z,42.805,6.029,13.2991,4.60019,2470.156,2021-12-09T05:53:27Z
2021-12-09T03:55:02Z,42.805,6.029,13.2993,4.60016,2470.203,2021-12-09T05:56:30Z
2021-12-09T03:58:06Z,42.805,6.029,13.2993,4.60016,2470.203,2021-12-09T05:59:34Z
2021-12-09T04:01:09Z,42.805,6.029,13.2992,4.60013,2470.203,2021-12-09T06:02:37Z
2021-12-09T04:04:12Z,42.805,6.029,13.2991,4.60019,2470.156,2021-12-09T06:05:40Z
2021-12-09T04:07:15Z,42.805,6.029,13.2986,4.60016,2470.24,2021-12-09T06:08:43Z
2021-12-09T04:10:18Z,42.805,6.029,13.2990,4.60016,2470.203,2021-12-09T06:11:46Z
2021-12-09T04:13:21Z,42.805,6.029,13.2991,4.60014,2470.227,2021-12-09T06:14:49Z
2021-12-09T04:16:24Z,42.805,6.029,13.2990,4.60016,2470.18,2021-12-09T06:17:52Z
2021-12-09T04:19:27Z,42.805,6.029,13.2991,4.60014,2470.203,2021-12-09T06:20:55Z
2021-12-09T04:22:31Z,42.805,6.029,13.2989,4.60016,2470.203,2021-12-09T06:23:58Z
2021-12-09T04:25:34Z,42.805,6.029,13.2990,4.60016,2470.194,2021-12-09T06:27:02Z
2021-12-09T04:28:37Z,42.805,6.029,13.2992,4.60016,2470.203,2021-12-09T06:30:05Z
2021-12-09T04:31:40Z,42.805,6.029,13.2993,4.60016,2470.18,2021-12-09T06:33:08Z
2021-12-09T04:34:43Z,42.805,6.029,13.2990,4.60016,2470.203,2021-12-09T06:36:11Z
2021-12-09T04:37:46Z,42.805,6.029,13.2990,4.60016,2470.18,2021-12-09T06:39:14Z
2021-12-09T04:40:49Z,42.805,6.029,13.2988,4.60022,2470.203,2021-12-09T06:42:17Z
2021-12-09T04:43:52Z,42.805,6.029,13.2990,4.60018,2470.203,2021-12-09T06:45:20Z
2021-12-09T04:46:55Z,42.805,6.029,13.2992,4.60017,2470.18,2021-12-09T06:48:23Z
2021-12-09T04:49:59Z,42.805,6.029,13.2992,4.60018,2470.217,2021-12-09T06:51:27Z
2021-12-09T04:53:02Z,42.805,6.029,13.2991,4.60019,2470.203,2021-12-09T06:54:30Z
2021-12-09T04:56:05Z,42.805,6.029,13.2991,4.60021,2470.203,2021-12-09T06:57:33Z
2021-12-09T04:59:08Z,42.805,6.029,13.2991,4.60016,2470.217,2021-12-09T07:00:36Z
2021-12-09T05:02:11Z,42.805,6.029,13.2987,4.60022,2470.203,2021-12-09T07:03:39Z
2021-12-09T05:05:14Z,42.805,6.029,13.2992,4.60021,2470.203,2021-12-09T07:06:42Z
2021-12-09T05:08:17Z,42.805,6.029,13.2991,4.60021,2470.203,2021-12-09T07:09:45Z
2021-12-09T05:11:20Z,42.805,6.029,13.2991,4.60019,2470.194,2021-12-09T07:12:48Z
2021-12-09T05:14:24Z,42.805,6.029,13.2990,4.60017,2470.203,2021-12-09T07:15:51Z
2021-12-09T05:17:27Z,42.805,6.029,13.2986,4.60019,2470.24,2021-12-09T07:18:55Z
2021-12-09T05:20:30Z,42.805,6.029,13.2988,4.60019,2470.217,2021-12-09T07:21:58Z
2021-12-09T05:23:33Z,42.805,6.029,13.2993,4.60021,2470.217,2021-12-09T07:25:01Z
2021-12-09T05:26:36Z,42.805,6.029,13.2991,4.60016,2470.217,2021-12-09T07:28:04Z
2021-12-09T05:29:39Z,42.805,6.029,13.2993,4.60015,2470.18,2021-12-09T07:31:07Z
2021-12-09T05:32:42Z,42.805,6.029,13.2987,4.60021,2470.227,2021-12-09T07:34:10Z
2021-12-09T05:35:45Z,42.805,6.029,13.2991,4.60019,2470.203,2021-12-09T07:37:13Z
2021-12-09T05:38:48Z,42.805,6.029,13.2989,4.60017,2470.217,2021-12-09T07:40:16Z
2021-12-09T05:41:52Z,42.805,6.029,13.2986,4.60019,2470.217,2021-12-09T07:43:20Z
2021-12-09T05:44:55Z,42.805,6.029,13.2997,4.60022,2470.227,2021-12-09T07:46:23Z
2021-12-09T05:47:58Z,42.805,6.029,13.2988,4.60016,2470.227,2021-12-09T07:49:26Z
2021-12-09T05:51:01Z,42.805,6.029,13.2991,4.60020,2470.227,2021-12-09T07:52:29Z
2021-12-09T05:54:04Z,42.805,6.029,13.2990,4.60015,2470.18,2021-12-09T07:55:32Z
2021-12-09T05:57:07Z,42.805,6.029,13.2991,4.60016,2470.227,2021-12-09T07:58:35Z
2021-12-09T06:00:10Z,42.805,6.029,13.2994,4.60016,2470.217,2021-12-09T08:01:38Z
2021-12-09T06:03:13Z,42.805,6.029,13.2989,4.60014,2470.203,2021-12-09T08:04:41Z
2021-12-09T06:06:17Z,42.805,6.029,13.2993,4.60014,2470.18,2021-12-09T08:07:44Z
2021-12-09T06:09:20Z,42.805,6.029,13.2991,4.60015,2470.24,2021-12-09T08:10:48Z
2021-12-09T06:12:23Z,42.805,6.029,13.2991,4.60024,2470.227,2021-12-09T08:13:51Z
2021-12-09T06:15:26Z,42.805,6.029,13.2990,4.60016,2470.227,2021-12-09T08:16:54Z
2021-12-09T06:18:29Z,42.805,6.029,13.2990,4.60019,2470.18,2021-12-09T08:19:57Z
2021-12-09T06:21:32Z,42.805,6.029,13.2991,4.60016,2470.24,2021-12-09T08:23:00Z
2021-12-09T06:24:35Z,42.805,6.029,13.2993,4.60014,2470.203,2021-12-09T08:26:03Z
2021-12-09T06:27:38Z,42.805,6.029,13.2993,4.60014,2470.203,2021-12-09T08:29:06Z
2021-12-09T06:30:41Z,42.805,6.029,13.2993,4.60015,2470.217,2021-12-09T08:32:09Z
2021-12-09T06:33:45Z,42.805,6.029,13.2990,4.60021,2470.264,2021-12-09T08:35:13Z
2021-12-09T06:36:48Z,42.805,6.029,13.2991,4.60015,2470.264,2021-12-09T08:38:16Z
2021-12-09T06:39:51Z,42.805,6.029,13.2996,4.60016,2470.227,2021-12-09T08:41:19Z
2021-12-09T06:42:54Z,42.805,6.029,13.2997,4.60014,2470.273,2021-12-09T08:44:22Z
2021-12-09T06:45:57Z,42.805,6.029,13.2993,4.60016,2470.24,2021-12-09T08:47:25Z
2021-12-09T06:49:00Z,42.805,6.029,13.2991,4.60017,2470.25,2021-12-09T08:50:28Z
2021-12-09T06:52:03Z,42.805,6.029,13.2990,4.60014,2470.273,2021-12-09T08:53:31Z
2021-12-09T06:55:06Z,42.805,6.029,13.2991,4.60015,2470.25,2021-12-09T08:56:34Z
2021-12-09T06:58:10Z,42.805,6.029,13.2991,4.60015,2470.264,2021-12-09T08:59:37Z
2021-12-09T07:01:13Z,42.805,6.029,13.2989,4.60016,2470.273,2021-12-09T09:02:41Z
2021-12-09T07:04:16Z,42.805,6.029,13.2992,4.60016,2470.25,2021-12-09T09:05:44Z
2021-12-09T07:07:19Z,42.805,6.029,13.2991,4.60015,2470.287,2021-12-09T09:08:47Z
2021-12-09T07:10:22Z,42.805,6.029,13.2990,4.60025,2470.25,2021-12-09T09:11:50Z
2021-12-09T07:13:25Z,42.805,6.029,13.2990,4.60018,2470.25,2021-12-09T09:14:53Z
2021-12-09T07:16:28Z,42.805,6.029,13.2995,4.60016,2470.297,2021-12-09T09:17:56Z
2021-12-09T07:19:31Z,42.805,6.029,13.2993,4.60019,2470.264,2021-12-09T09:20:59Z
2021-12-09T07:22:34Z,42.805,6.029,13.2991,4.60025,2470.31,2021-12-09T09:24:02Z
2021-12-09T07:25:38Z,42.805,6.029,13.2991,4.60025,2470.273,2021-12-09T09:27:06Z
2021-12-09T07:28:41Z,42.805,6.029,13.2993,4.60029,2470.273,2021-12-09T09:30:09Z
2021-12-09T07:31:44Z,42.805,6.029,13.2993,4.60022,2470.31,2021-12-09T09:33:12Z
2021-12-09T07:34:47Z,42.805,6.029,13.2991,4.60021,2470.32,2021-12-09T09:36:15Z
2021-12-09T07:37:50Z,42.805,6.029,13.2991,4.60029,2470.297,2021-12-09T09:39:18Z
2021-12-09T07:40:53Z,42.805,6.029,13.2993,4.60034,2470.32,2021-12-09T09:42:21Z
2021-12-09T07:43:56Z,42.805,6.029,13.2993,4.60033,2470.32,2021-12-09T09:45:24Z
2021-12-09T07:46:59Z,42.805,6.029,13.2990,4.60038,2470.297,2021-12-09T09:48:27Z
2021-12-09T07:50:03Z,42.805,6.029,13.2996,4.60033,2470.32,2021-12-09T09:51:31Z
2021-12-09T07:53:06Z,42.805,6.029,13.2991,4.60036,2470.32,2021-12-09T09:54:34Z
2021-12-09T07:56:09Z,42.805,6.029,13.2994,4.60036,2470.32,2021-12-09T09:57:37Z
2021-12-09T07:59:12Z,42.805,6.029,13.2990,4.60049,2470.297,2021-12-09T10:00:40Z
2021-12-09T08:02:15Z,42.805,6.029,13.3016,4.60035,2470.343,2021-12-09T10:03:43Z
2021-12-09T08:05:18Z,42.805,6.029,13.3000,4.60052,2470.334,2021-12-09T10:06:46Z
2021-12-09T08:08:21Z,42.805,6.029,13.3008,4.60045,2470.334,2021-12-09T10:09:49Z
2021-12-09T08:11:24Z,42.805,6.029,13.3013,4.60033,2470.32,2021-12-09T10:12:52Z
2021-12-09T08:14:28Z,42.805,6.029,13.3017,4.60059,2470.334,2021-12-09T10:15:55Z
2021-12-09T08:17:31Z,42.805,6.029,13.3030,4.60052,2470.334,2021-12-09T10:18:59Z
2021-12-09T08:20:34Z,42.805,6.029,13.3034,4.60037,2470.357,2021-12-09T10:22:02Z
2021-12-09T08:23:37Z,42.805,6.029,13.3024,4.60089,2470.357,2021-12-09T10:25:05Z
2021-12-09T08:26:40Z,42.805,6.029,13.3052,4.60064,2470.334,2021-12-09T10:28:08Z
2021-12-09T08:29:43Z,42.805,6.029,13.3034,4.60087,2470.343,2021-12-09T10:31:11Z
2021-12-09T08:32:46Z,42.805,6.029,13.3046,4.60072,2470.357,2021-12-09T10:34:14Z
2021-12-09T08:35:49Z,42.805,6.029,13.3048,4.60099,2470.32,2021-12-09T10:37:17Z
2021-12-09T08:38:53Z,42.805,6.029,13.3040,4.60072,2470.357,2021-12-09T10:40:20Z
2021-12-09T08:41:56Z,42.805,6.029,13.3029,4.60064,2470.366,2021-12-09T10:43:24Z
2021-12-09T08:44:59Z,42.805,6.029,13.3031,4.60053,2470.39,2021-12-09T10:46:27Z
2021-12-09T08:48:02Z,42.805,6.029,13.3048,4.60056,2470.366,2021-12-09T10:49:30Z
2021-12-09T08:51:05Z,42.805,6.029,13.3021,4.60088,2470.38,2021-12-09T10:52:33Z
2021-12-09T08:54:08Z,42.805,6.029,13.3030,4.60039,2470.39,2021-12-09T10:55:36Z
2021-12-09T08:57:11Z,42.805,6.029,13.3029,4.60054,2470.38,2021-12-09T10:58:39Z
2021-12-09T09:00:14Z,42.805,6.029,13.3022,4.60074,2470.404,2021-12-09T11:01:42Z
2021-12-09T09:03:17Z,42.805,6.029,13.3028,4.60089,2470.404,2021-12-09T11:04:45Z
2021-12-09T09:06:21Z,42.805,6.029,13.3030,4.60094,2470.366,2021-12-09T11:07:49Z
2021-12-09T09:09:24Z,42.805,6.029,13.3023,4.60097,2470.404,2021-12-09T11:10:52Z
2021-12-09T09:12:27Z,42.805,6.029,13.3025,4.60106,2470.39,2021-12-09T11:13:55Z
2021-12-09T09:15:30Z,42.805,6.029,13.3013,4.60143,2470.413,2021-12-09T11:16:58Z
2021-12-09T09:18:33Z,42.805,6.029,13.3018,4.60131,2470.427,2021-12-09T11:20:01Z
2021-12-09T09:21:36Z,42.805,6.029,13.3018,4.60133,2470.39,2021-12-09T11:23:04Z
